Regional Weather Roundup
Issued by NWS

Home | Current Version | Previous Version | Text Only | Print | Product List | Glossary On
Versions: 1 2 3 4 5 6 7 8 9 10 11 12 13 14 15 16 17 18 19 20 21 22 23 24 25 26 27 28 29 30 31 32 33 34 35 36 37 38 39 40 41 42 43 44 45 46 47 48 49 50
000
ASUS42 KTBW 231716
RWRFL
FLORIDA REGIONAL WEATHER ROUNDUP
NATIONAL WEATHER SERVICE TAMPA BAY RUSKIN FL
1200 PM EST THU FEB 23 2017

NOTE: "FAIR" INDICATES FEW OR NO CLOUDS BELOW 12,000 FEET WITH NO
SIGNIFICANT WEATHER AND/OR OBSTRUCTIONS TO VISIBILITY.

FLZ001>010-012>015-112-114-115-231800-
PANHANDLE FLORIDA

CITY           SKY/WX    TMP DP  RH WIND       PRES   REMARKS
PENSACOLA      SUNNY     73  60  63 N7        29.84F
PENSACOLA NAS  MOSUNNY   73  59  61 VRB6      29.83F
MILTON NAS     MOSUNNY   72  60  66 VRB3      29.85F
CRESTVIEW      PTSUNNY   71  60  68 VRB7      29.86F
DUKE FIELD     MOSUNNY   70  61  71 N6        29.83F
VALPARAISO     MOSUNNY   73  61  65 NE10      29.83F
MARY ESTHER    MOSUNNY   76  50  41 E7        29.82F
TRI COUNTY     FAIR      75  62  64 N8        29.83F
PANAMA CITY    PTSUNNY   70  62  76 N8        29.83S
TYNDALL AFB    MOSUNNY   71  63  75 N9        29.81F
APALACHICOLA   PTSUNNY   76  65  68 NE9       29.79F

STATION/POSITION SKY/WX   TEMP    WIND        PRES    WAVE   SWELL
                          AIR SEA DIR/SP/G            HT/PER HT/PER
                          (F)     (DEG/KT/KT) (MB)    (FT/S) (FT/S)
30.1N   87.6W              64 68   50/  8/ 10 1010.6F   2/ 4   2/ 4
28.8N   86.0W              68 71              1009.2    4/ 5   2/ 8
PANAMA CITY BEAC           67      20/  7/ 12 1010.3S
TOWER C                    66      30/ 16/ 17 1008.8F
28.5N   84.5W              69 69   30/ 17/ 21 1006.9F   5/ 6

$$
FLZ011-016>038-118-127-128-134-139-239-231800-
NORTH FLORIDA

CITY           SKY/WX    TMP DP  RH WIND       PRES   REMARKS
MARIANNA       PTSUNNY   73  62  68 NE12      29.82F
TALLAHASSEE    MOSUNNY   76  61  59 E15G22    29.79F
PERRY          CLOUDY    74  62  65 NE13G18   29.78F
CROSS CITY     CLOUDY    73  63  68 NE16G24   29.74F
LAKE CITY      CLOUDY    72  64  78 NE10G16   29.76F
GAINESVILLE    PTSUNNY   74  63  68 NE16G26   29.73F
WILLISTON      PTSUNNY   75  64  69 N12G21    29.72S
PALATKA        CLOUDY    73  68  83 NE16G28   29.73R
MAYPORT NAS    CLOUDY    69  63  81 N20G25    29.77S
JACKSONVILLE   PTSUNNY   71  64  78 NE20G28   29.77S
JAX NAS        LGT RAIN  73  63  70 NE24      29.77S
FERNANDINA BEA CLOUDY    72  63  73 NE18G24   29.77F
ST AUGUSTINE   LGT RAIN  70  66  88 N20G25    29.74F
PALM COAST     CLOUDY    70  70 100 NE12      29.70F FOG

STATION/POSITION SKY/WX   TEMP    WIND        PRES    WAVE   SWELL
                          AIR SEA DIR/SP/G            HT/PER HT/PER
                          (F)     (DEG/KT/KT) (MB)    (FT/S) (FT/S)
SHELL POINT      NOT AVBL
KEATON BEACH               71      30/ 11/ 18 1007.4F
CEDAR KEY                  72      30/ 11/ 17 1006.9R
FERNANDINA                 67 67  360/ 14/ 20 1009.3F
30.7N   81.3W                 64                N/A     7/ 9   2/11
MAYPORT                    66 66   20/ 19/ 21 1008.4S
31.4N   80.9W              63 63   40/ 19/ 23 1008.9    7/ 8   3/ 8
ST AUGUSTINE               67 67   40/ 21/ 25 1007.3R

$$
FLZ040-043>046-052-053-057-058-063-144-231800-
INTERIOR CENTRAL FLORIDA

CITY           SKY/WX    TMP DP  RH WIND       PRES   REMARKS
OCALA          CLOUDY    73  63  68 N15G24    29.70F
THE VILLAGES     N/A     73  73 100 SE10G17   29.58F
LEESBURG       PTSUNNY   75  63  66 NE15G23   29.68F
SANFORD        PTSUNNY   72  63  73 N8        29.66F
ORLANDO EXEC   PTSUNNY   74  62  66 NE8       29.66F
ORLANDO INTL   PTSUNNY   73  60  63 NE6       29.66F
KISSIMMEE      CLOUDY    72  62  71 W5        29.67F
WINTER HAVEN   MOSUNNY   72  61  68 E9        29.67F
LAKELAND       PTSUNNY   72  64  78 NE8       29.66R
BARTOW         PTSUNNY   68  63  83 E3        29.66F
OKEECHOBEE     PTSUNNY   72  59  64 NW8       29.67F

$$
FLZ041-047-054-059-064-141-147-231800-
EAST CENTRAL FLORIDA

CITY           SKY/WX    TMP DP  RH WIND       PRES   REMARKS
ORMOND BEACH   LGT RAIN  68  68 100 NE6       29.69S
DAYTONA BEACH  RAIN      67  66  97 E7        29.69S FOG
DELAND         CLOUDY    70  64  83 NE10      29.68S
NEW SMYRNA BEA PTSUNNY   66  64  94 NE6       29.67F FOG
JFK SPACE CTR  CLOUDY    70  65  84 N8        29.65S
TITUSVILLE     PTSUNNY   70  64  83 NW6       29.67S
CAPE CANAVERAL CLOUDY    69  62  79 NW8       29.64F
PATRICK AFB    PTSUNNY   69  63  81 NW7       29.65F
MELBOURNE      PTSUNNY   71  64  78 W5        29.65F
VERO BEACH     PTSUNNY   69  61  75 W7        29.67S
FT PIERCE      MOSUNNY   71  62  73 W6        29.66F
STUART         MOSUNNY   77  59  53 W9        29.67F

STATION/POSITION SKY/WX   TEMP    WIND        PRES    WAVE   SWELL
                          AIR SEA DIR/SP/G            HT/PER HT/PER
                          (F)     (DEG/KT/KT) (MB)    (FT/S) (FT/S)
TRIDENT PIER               68 71  280/  4/  6 1005.2F
28.4N   80.5W                 71                N/A     4/ 8   2/11
27.5N   80.2W                 72                N/A     4/10   2/11

$$
FLZ050-056-061-142-242-148-248-149-249-151-251-155-255-
160-260-231800-
WEST CENTRAL FLORIDA

CITY           SKY/WX    TMP DP  RH WIND       PRES   REMARKS
CRYSTAL RIVER  CLOUDY    77  64  65 N14G22    29.69F
INVERNESS      CLOUDY    72  68  88 N9G20     29.70S
BROOKSVILLE    PTSUNNY   74  62  66 N21       29.68S
CLEARWATER AIR CLOUDY    70  64  83 N12       29.67F
ST PETE CLEARW CLOUDY    72  64  76 N10       29.66F
TAMPA INTL     CLOUDY    73  63  70 N13       29.67S
TAMPA EXEC     CLOUDY    72  68  88 N5        29.67S
PLANT CITY     CLOUDY    72  68  88 NE6       29.67S
MACDILL AFB    LGT RAIN  72  70  94 NE9       29.66S
PETER O KNIGHT CLOUDY    72  68  88 NE6       29.67R FOG
ST PETERSBURG  CLOUDY    71  64  78 N8G20     29.64F
SARASOTA       CLOUDY    70  63  78 NW9       29.65F
VENICE         CLOUDY    70  64  83 NW13      29.67S

STATION/POSITION SKY/WX   TEMP    WIND        PRES    WAVE   SWELL
                          AIR SEA DIR/SP/G            HT/PER HT/PER
                          (F)     (DEG/KT/KT) (MB)    (FT/S) (FT/S)
27.3N   84.2W                 71                N/A     6/ 5
CLEARWATER BEACH           68     350/ 19/ 23 1004.9F
MIDDLE TAMPA BAY           69      10/ 14/ 17 1004.7F
VENICE                     68 70  320/ 17/ 19 1004.0F

$$
FLZ066-069-070-075>078-162-262-165-265-231800-
SOUTHWEST FLORIDA AND KEYS

CITY           SKY/WX    TMP DP  RH WIND       PRES   REMARKS
PUNTA GORDA    PTSUNNY   71  60  68 W7        29.68R
FT MYERS       PTSUNNY   72  60  66 W10       29.66S
SOUTHWEST INTL MOSUNNY   73  58  59 NW8       29.66S
NAPLES         PTSUNNY   73  61  65 W16       29.67F
MARCO ISLAND   PTSUNNY   73  61  64 W9G16     29.68F
MARATHON       MOSUNNY   77  65  66 W9        29.70F
KEY WEST NAS   MOSUNNY   74  62  66 W16       29.71F
KEY WEST INTL  SUNNY     75  63  66 W15       29.71F

STATION/POSITION SKY/WX   TEMP    WIND        PRES    WAVE   SWELL
                          AIR SEA DIR/SP/G            HT/PER HT/PER
                          (F)     (DEG/KT/KT) (MB)    (FT/S) (FT/S)
NAPLES                        72              1004.9F
26.0N   85.6W              72 74  350/ 16/ 17 1008.0S   5/ 8   3/ 8
DRY TORTUGAS               72     310/ 11/ 12 1006.4F
SAND KEY                   72     300/ 16/ 18 1006.9S
LONG KEY                   71 72  280/  9/ 10 1006.3F
MOLASSES REEF              70 74  270/ 18/ 20 1006.0

$$
FLZ067-068-071>074-168-172>174-231800-
SOUTHEAST FLORIDA

CITY           SKY/WX    TMP DP  RH WIND       PRES   REMARKS
W PALM BEACH   MOSUNNY   75  57  53 W10       29.66F
BOCA RATON     PTSUNNY   77  61  57 W9G21     29.66F
FT LAUDER-EXEC PTSUNNY   78  58  49 SW10      29.66F
FT LAUDERDALE  MOSUNNY   76  59  55 W10G18    29.65F
POMPANO BEACH  MOSUNNY   76  58  53 W10       29.66F
PEMBROKE PINES MOSUNNY   77  59  53 SW14      29.67F
OPA LOCKA      MOSUNNY   77  59  53 W10       29.67F
MIAMI          MOSUNNY   76  59  55 SW12      29.67F
WEST KENDALL   PTSUNNY   77  59  53 W13       29.67F
HOMESTEAD      LGT RAIN  72  66  83 SW15      29.67F

STATION/POSITION SKY/WX   TEMP    WIND        PRES    WAVE   SWELL
                          AIR SEA DIR/SP/G            HT/PER HT/PER
                          (F)     (DEG/KT/KT) (MB)    (FT/S) (FT/S)
PORT EVERGLADES            74     240/  7/ 12 1004.5F
VIRGINIA KEY               71     230/ 11/ 13 1005.1F
LAKE WORTH                        240/  5/  8   N/A
FOWEY ROCKS                72 74  220/ 11/ 12 1005.9F

$$




USA.gov is the U.S. government's official web portal to all federal, state and local government web resources and services.